| time (UTC) | temp C | wind direction | speed KPH | gust KPH | rain 1hr cm | rain 24hr cm | rain mn cm | humidity % | barometer mb |
| 20260510070045 | 11 | 0 | 0.0 | 0.0 | 0.00 | 1.68 | 0.00 | 96 | 1010.9 |
| 20260510064556 | 11 | 0 | 0.0 | 0.0 | 0.00 | 1.68 | 0.00 | 97 | 1010.8 |
| 20260510063046 | 10 | 0 | 0.0 | 0.0 | 0.00 | 1.68 | 0.00 | 98 | 1010.6 |
| 20260510061540 | 10 | 0 | 0.0 | 0.0 | 0.00 | 1.68 | 0.00 | 98 | 1010.5 |
| 20260510060039 | 8 | 0 | 0.0 | 0.0 | 0.00 | 1.68 | 0.00 | 98 | 1010.5 |
| 20260510054544 | 8 | 0 | 0.0 | 0.0 | 0.00 | 1.68 | 0.00 | 98 | 1010.7 |
| 20260510053042 | 8 | 0 | 0.0 | 0.0 | 0.00 | 1.68 | 0.00 | 98 | 1010.6 |
| 20260510051554 | 7 | 0 | 0.0 | 0.0 | 0.00 | 1.68 | 0.00 | 98 | 1010.7 |
| 20260510050043 | 8 | 0 | 0.0 | 0.0 | 0.00 | 1.68 | 0.00 | 97 | 1010.6 |
| 20260510044548 | 8 | 0 | 0.0 | 0.0 | 0.00 | 1.68 | 0.00 | 97 | 1010.8 |
| 20260510043053 | 8 | 0 | 0.0 | 0.0 | 0.00 | 1.68 | 0.00 | 97 | 1010.8 |
| 20260510041548 | 8 | 0 | 0.0 | 0.0 | 0.00 | 1.68 | 0.00 | 97 | 1010.6 |
| 20260510040050 | 8 | 0 | 0.0 | 0.0 | 0.00 | 1.68 | 0.00 | 97 | 1010.4 |
| 20260510034543 | 8 | 0 | 0.0 | 0.0 | 0.00 | 1.68 | 0.00 | 97 | 1010.6 |
| 20260510033045 | 8 | 0 | 0.0 | 0.0 | 0.00 | 1.68 | 0.00 | 97 | 1010.7 |
| 20260510031553 | 8 | 0 | 0.0 | 0.0 | 0.00 | 1.68 | 0.00 | 97 | 1010.8 |
| 20260510030044 | 9 | 0 | 0.0 | 0.0 | 0.00 | 1.68 | 0.00 | 97 | 1011.0 |
| 20260510024548 | 9 | 0 | 0.0 | 0.0 | 0.00 | 1.68 | 0.00 | 97 | 1011.2 |
| 20260510023042 | 9 | 0 | 0.0 | 0.0 | 0.00 | 1.65 | 0.00 | 97 | 1011.2 |
| 20260510021543 | 9 | 0 | 0.0 | 0.0 | 0.00 | 1.65 | 0.00 | 97 | 1011.1 |
| 20260510020049 | 10 | 0 | 0.0 | 0.0 | 0.00 | 1.65 | 0.00 | 97 | 1011.0 |
| 20260510014540 | 10 | 0 | 0.0 | 0.0 | 0.00 | 1.65 | 0.00 | 97 | 1011.0 |
| 20260510013038 | 10 | 0 | 0.0 | 0.0 | 0.00 | 1.65 | 0.00 | 97 | 1010.9 |
| 20260510011546 | 10 | 0 | 0.0 | 0.0 | 0.00 | 1.65 | 0.00 | 97 | 1011.0 |
| 20260510010038 | 10 | 0 | 0.0 | 0.0 | 0.00 | 1.65 | 0.00 | 97 | 1011.1 |
| 20260510004542 | 11 | 0 | 0.0 | 0.0 | 0.00 | 1.65 | 0.00 | 97 | 1011.1 |
| 20260510003047 | 11 | 0 | 0.0 | 0.0 | 0.00 | 1.65 | 0.00 | 97 | 1011.3 |
| 20260510001539 | 11 | 0 | 0.0 | 0.0 | 0.00 | 1.65 | 0.00 | 97 | 1011.5 |
| 20260510000040 | 12 | 0 | 0.0 | 0.0 | 0.00 | 1.65 | 0.00 | 97 | 1011.6 |
| 20260509234539 | 12 | 0 | 0.0 | 0.0 | 0.00 | 1.65 | 0.00 | 97 | 1011.8 |
| 20260509233048 | 12 | 0 | 0.0 | 0.0 | 0.00 | 1.65 | 0.00 | 97 | 1012.1 |
| 20260509231542 | 12 | 0 | 0.0 | 0.0 | 0.00 | 1.65 | 0.00 | 97 | 1012.0 |
| 20260509230043 | 12 | 0 | 0.0 | 0.0 | 0.00 | 1.65 | 0.00 | 97 | 1012.1 |
| 20260509224550 | 12 | 0 | 0.0 | 0.0 | 0.00 | 1.65 | 0.00 | 97 | 1012.0 |
| 20260509223048 | 12 | 0 | 0.0 | 0.0 | 0.00 | 1.65 | 0.00 | 97 | 1012.2 |
| 20260509221600 | 12 | 0 | 0.0 | 0.0 | 0.00 | 1.65 | 0.00 | 97 | 1012.0 |
| 20260509220039 | 12 | 0 | 0.0 | 0.0 | 0.00 | 1.65 | 0.00 | 97 | 1012.0 |
| 20260509214548 | 12 | 0 | 0.0 | 0.0 | 0.00 | 1.65 | 1.65 | 97 | 1011.9 |
| 20260509213043 | 12 | 0 | 0.0 | 0.0 | 0.00 | 1.65 | 1.65 | 97 | 1012.0 |
| 20260509211539 | 12 | 0 | 0.0 | 0.0 | 0.00 | 1.65 | 1.65 | 97 | 1011.8 |
| 20260509210049 | 12 | 0 | 0.0 | 0.0 | 0.00 | 1.65 | 1.65 | 96 | 1011.7 |
| 20260509204547 | 12 | 0 | 0.0 | 0.0 | 0.00 | 1.65 | 1.65 | 96 | 1011.3 |
| 20260509203043 | 12 | 0 | 0.0 | 0.0 | 0.00 | 1.65 | 1.65 | 96 | 1011.2 |
| 20260509201556 | 12 | 0 | 0.0 | 0.0 | 0.00 | 1.65 | 1.65 | 96 | 1010.9 |
| 20260509200058 | 12 | 0 | 0.0 | 3.2 | 0.00 | 1.65 | 1.65 | 96 | 1011.0 |
| 20260509194550 | 12 | 0 | 0.0 | 0.0 | 0.00 | 1.65 | 1.65 | 96 | 1010.7 |
| 20260509193048 | 12 | 0 | 0.0 | 6.4 | 0.00 | 1.65 | 1.65 | 95 | 1010.3 |
| 20260509191546 | 12 | 103 | 3.2 | 9.7 | 0.03 | 1.65 | 1.65 | 95 | 1009.9 |
| 20260509190103 | 12 | 61 | 1.6 | 8.0 | 0.03 | 1.65 | 1.65 | 95 | 1009.7 |
| 20260509184551 | 12 | 35 | 3.2 | 8.0 | 0.03 | 1.65 | 1.65 | 95 | 1009.5 |
| 20260509183049 | 12 | 0 | 1.6 | 6.4 | 0.08 | 1.63 | 1.63 | 95 | 1009.5 |
| 20260509181545 | 12 | 132 | 3.2 | 9.7 | 0.18 | 1.60 | 1.60 | 95 | 1009.3 |
| 20260509180051 | 12 | 0 | 3.2 | 11.3 | 0.38 | 1.60 | 1.60 | 95 | 1008.9 |
| 20260509174550 | 12 | 0 | 1.6 | 12.9 | 0.58 | 1.60 | 1.60 | 95 | 1008.9 |
| 20260509173051 | 12 | 342 | 1.6 | 6.4 | 0.64 | 1.52 | 1.52 | 95 | 1009.4 |
| 20260509171548 | 13 | 0 | 0.0 | 1.6 | 0.84 | 1.40 | 1.40 | 95 | 1010.0 |
| 20260509170038 | 13 | 0 | 0.0 | 0.0 | 0.79 | 1.22 | 1.22 | 94 | 1010.6 |
| 20260509164551 | 13 | 0 | 0.0 | 0.0 | 0.69 | 1.02 | 1.02 | 94 | 1010.8 |
| 20260509163051 | 13 | 0 | 0.0 | 3.2 | 0.56 | 0.89 | 0.89 | 93 | 1011.1 |
| 20260509161556 | 13 | 113 | 0.0 | 8.0 | 0.28 | 0.56 | 0.56 | 92 | 1011.4 |
| 20260509160053 | 13 | 129 | 0.0 | 1.6 | 0.28 | 0.41 | 0.41 | 93 | 1011.3 |
| 20260509154550 | 13 | 342 | 0.0 | 1.6 | 0.30 | 0.30 | 0.30 | 92 | 1010.8 |
| 20260509153054 | 13 | 201 | 1.6 | 6.4 | 0.30 | 0.30 | 0.30 | 91 | 1009.3 |
| 20260509151548 | 13 | 339 | 3.2 | 11.3 | 0.28 | 0.28 | 0.28 | 90 | 1008.8 |
| 20260509150048 | 15 | 0 | 0.0 | 0.0 | 0.10 | 0.10 | 0.10 | 88 | 1009.1 |
| 20260509144547 | 15 | 0 | 0.0 | 0.0 | 0.00 | 0.00 | 0.00 | 83 | 1009.9 |
| 20260509143038 | 16 | 0 | 0.0 | 3.2 | 0.00 | 0.00 | 0.00 | 78 | 1010.5 |
| 20260509141544 | 16 | 153 | 1.6 | 6.4 | 0.00 | 0.00 | 0.00 | 74 | 1010.9 |
| 20260509140051 | 16 | 242 | 3.2 | 6.4 | 0.00 | 0.00 | 0.00 | 74 | 1011.1 |
| 20260509134623 | 16 | 286 | 3.2 | 9.7 | 0.00 | 0.00 | 0.00 | 74 | 1010.8 |
| 20260509133047 | 17 | 264 | 1.6 | 6.4 | 0.00 | 0.00 | 0.00 | 72 | 1010.6 |
| 20260509131551 | 17 | 0 | 0.0 | 3.2 | 0.00 | 0.00 | 0.00 | 72 | 1010.5 |
| 20260509130041 | 17 | 276 | 0.0 | 1.6 | 0.00 | 0.00 | 0.00 | 71 | 1010.2 |
| 20260509124543 | 17 | 0 | 0.0 | 4.8 | 0.00 | 0.00 | 0.00 | 72 | 1010.8 |
| 20260509123043 | 16 | 0 | 0.0 | 6.4 | 0.00 | 0.00 | 0.00 | 74 | 1010.9 |
| 20260509121550 | 16 | 285 | 0.0 | 9.7 | 0.00 | 0.00 | 0.00 | 74 | 1011.2 |
| 20260509120050 | 16 | 219 | 3.2 | 14.5 | 0.00 | 0.00 | 0.00 | 74 | 1011.7 |
| 20260509114548 | 17 | 196 | 8.0 | 17.7 | 0.00 | 0.00 | 0.00 | 73 | 1011.9 |
| 20260509113048 | 17 | 262 | 4.8 | 14.5 | 0.00 | 0.00 | 0.00 | 68 | 1012.0 |
| 20260509111544 | 17 | 179 | 4.8 | 12.9 | 0.00 | 0.00 | 0.00 | 69 | 1011.8 |
| 20260509110043 | 17 | 226 | 3.2 | 8.0 | 0.00 | 0.00 | 0.00 | 70 | 1011.9 |
| 20260509104540 | 17 | 0 | 0.0 | 8.0 | 0.00 | 0.00 | 0.00 | 73 | 1012.0 |
| 20260509103053 | 17 | 158 | 0.0 | 3.2 | 0.00 | 0.00 | 0.00 | 71 | 1011.9 |
| 20260509101553 | 17 | 208 | 0.0 | 6.4 | 0.00 | 0.00 | 0.00 | 71 | 1011.9 |
| 20260509100044 | 18 | 0 | 0.0 | 3.2 | 0.00 | 0.00 | 0.00 | 71 | 1012.0 |
| 20260509094544 | 17 | 107 | 0.0 | 6.4 | 0.00 | 0.00 | 0.00 | 71 | 1012.0 |
| 20260509093054 | 17 | 222 | 1.6 | 4.8 | 0.00 | 0.00 | 0.00 | 74 | 1011.8 |
| 20260509091548 | 16 | 0 | 0.0 | 4.8 | 0.00 | 0.00 | 0.00 | 76 | 1011.7 |
| 20260509090037 | 16 | 0 | 1.6 | 9.7 | 0.00 | 0.00 | 0.00 | 76 | 1011.8 |
| 20260509084544 | 16 | 88 | 3.2 | 9.7 | 0.00 | 0.00 | 0.00 | 77 | 1011.8 |
| 20260509083052 | 15 | 101 | 1.6 | 9.7 | 0.00 | 0.00 | 0.00 | 79 | 1011.5 |
| 20260509081550 | 15 | 0 | 3.2 | 9.7 | 0.00 | 0.00 | 0.00 | 79 | 1011.7 |
| 20260509080044 | 14 | 256 | 1.6 | 9.7 | 0.00 | 0.00 | 0.00 | 81 | 1011.9 |
| 20260509074553 | 13 | 251 | 0.0 | 9.7 | 0.00 | 0.00 | 0.00 | 83 | 1012.1 |
| 20260509073043 | 13 | 257 | 0.0 | 8.0 | 0.00 | 0.00 | 0.00 | 84 | 1012.5 |
| 20260509071540 | 13 | 295 | 4.8 | 12.9 | 0.00 | 0.00 | 0.00 | 84 | 1012.5 |